#timestamp,LO_Frequency,Hit,StdDev 
1514253615.8,286046988.5,Y
1514253635.6,286046998.0,P
1514253655.5,286046989.3,P
1514253675.3,286046986.9,P
1514253695.1,286046991.2,N
1514253715.9,286046986.5,Y
1514253735.7,286046995.2,P
1514253755.5,286046993.7,P
1514253775.4,286046994.4,P
1514253795.2,286046988.9,Y
1514253815.0,286046992.6,P
1514253815.9,286046992.6,P
1514253835.8,286046990.7,P
1514253855.6,286046987.7,Y
1514253875.4,286046996.2,P
1514253895.3,286046993.8,P
1514253915.1,286046990.9,P
1514253935.8,286046988.1,Y
1514253955.7,286046995.8,P
1514253975.5,286046992.1,P
1514253995.3,286046992.5,P
1514254015.2,286046993.9,Y
1514254035.0,286047000.0,P
1514254035.9,286047000.0,N
1514254055.7,286047000.4,N
1514254075.6,286047001.5,N
1514254095.4,286046999.9,N
1514254115.2,286047001.0,N
1514254135.1,286047000.7,N
1514254136.0,286047000.7,N
1514254155.8,286046998.5,N
1514254175.6,286046997.4,N
1514254195.5,286046995.1,N
1514254215.3,286046997.2,N
1514254235.1,286046997.6,N
1514254255.9,286046997.0,N
1514254275.7,286046999.3,N
1514254295.5,286046996.9,N
1514254315.3,286046999.1,N
1514254335.2,286046999.5,N
1514254355.0,286047001.1,N
1514254355.9,286047001.1,N
1514254375.7,286047001.7,N
1514254395.6,286047003.9,N
1514254415.4,286047005.6,N
1514254435.2,286047005.3,N
1514254455.1,286047009.0,Y
1514254456.0,286047009.0,P
1514254475.8,286047005.2,N
1514254495.6,286047005.1,N
1514254515.5,286047007.4,N
1514254535.3,286047007.6,N
1514254555.1,286047003.3,N
1514254575.9,286047001.9,N
1514254595.7,286047001.9,N
1514254615.5,286046999.9,N
1514254635.4,286046998.8,N
1514254655.2,286046998.9,N
1514254675.0,286046998.5,N
1514254675.9,286046998.5,N
1514254695.8,286046998.1,N
1514254715.6,286047002.6,N
1514254735.4,286047001.3,N
1514254755.2,286047003.3,N
1514254775.1,286047008.7,N
1514254776.0,286047008.7,N
1514254795.8,286047010.5,N
1514254815.6,286047012.1,Y
1514254835.5,286047007.8,P
1514254855.3,286047011.5,P
1514254875.1,286047011.0,P
1514254895.9,286047011.1,Y
1514254915.7,286047008.2,P
1514254935.5,286047009.5,P
1514254955.4,286047013.4,P
1514254975.2,286047012.5,Y
1514254995.0,286047005.0,P
1514254995.9,286047005.0,N
1514255015.8,286047008.1,P
1514255035.6,286047010.6,Y
1514255055.4,286047006.7,P
1514255075.3,286047010.3,P
1514255095.1,286047015.2,P
1514255115.8,286047014.6,Y
1514255135.7,286047003.3,P
1514255155.5,286046999.9,N
1514255175.3,286047002.6,N
1514255195.2,286046999.9,N
1514255215.9,286047001.8,N
1514255235.7,286047003.8,N
1514255255.6,286047002.7,N
1514255275.4,286047004.3,N
1514255295.2,286047007.0,N
1514255315.1,286047004.9,N
1514255316.0,286047004.9,N
1514255335.8,286047003.5,N
1514255355.6,286047005.5,N
1514255375.5,286047004.7,N
1514255395.3,286047005.8,N
1514255415.1,286047009.4,Y
1514255435.9,286047007.7,P
1514255455.7,286047007.8,P
1514255475.5,286047006.2,P
1514255495.4,286047008.1,Y
1514255515.2,286047008.6,P
1514255535.0,286047010.1,P
1514255535.9,286047010.1,P
1514255555.8,286047013.1,Y
1514255575.6,286047006.1,P
1514255595.4,286047009.8,P
1514255615.3,286047011.9,P
1514255635.1,286047009.3,Y
1514255636.0,286047009.3,P
1514255655.8,286047004.4,P
1514255675.7,286047000.9,N
1514255695.5,286047001.0,N
1514255715.3,286046997.3,N
1514255735.2,286047001.8,N
1514255755.9,286047003.0,N
1514255775.7,286047001.6,N
1514255795.5,286047001.7,N
1514255815.4,286047000.0,N
1514255835.2,286047000.7,N
1514255855.0,286046997.3,N
1514255855.9,286046997.3,N
1514255875.8,286046997.1,N
1514255895.6,286046995.9,N
1514255915.4,286046994.4,N
1514255935.3,286046992.8,N
1514255955.1,286046990.5,N
1514255956.0,286046990.5,N
1514255975.8,286046990.0,N
1514255995.7,286046988.3,N
1514256015.5,286046987.1,N
1514256035.3,286046988.5,N
1514256055.1,286046987.7,N
1514256075.9,286046986.8,N
1514256095.7,286046982.8,N
1514256115.5,286046985.1,N
1514256135.4,286046981.0,N
1514256155.2,286046980.7,N
1514256175.0,286046980.3,N
1514256175.9,286046980.3,N
1514256195.8,286046978.4,N
1514256215.6,286046975.6,Y
1514256235.4,286046979.1,P
1514256255.3,286046977.6,P
1514256275.1,286046975.7,P
1514256295.8,286046977.3,Y
1514256315.7,286046998.4,P
1514256335.5,286046998.3,N
1514256355.3,286046995.2,N
1514256375.2,286046995.8,N
1514256395.0,286046997.8,N
1514256395.9,286046997.8,N
1514256415.7,286046997.9,N
1514256435.6,286046996.3,N
1514256455.4,286046991.2,N
1514256475.2,286046989.8,N
1514256495.1,286046984.6,Y
1514256496.0,286046984.6,P
1514256515.8,286046988.1,N
1514256535.6,286046983.7,P
1514256555.5,286046983.7,Y
1514256575.3,286047001.1,P
1514256595.1,286046998.1,N
1514256615.9,286046999.5,N
1514256635.7,286046997.0,N
1514256655.5,286046995.2,N
1514256675.4,286046992.9,N
1514256695.2,286046987.1,Y
1514256715.0,286046992.9,P
1514256715.9,286046992.9,P
1514256735.8,286046992.8,P
1514256755.6,286046992.8,Y
1514256775.4,286046997.2,P
1514256795.3,286046997.1,N
1514256815.1,286047000.7,N
1514256835.8,286047002.5,N
1514256855.7,286047000.3,N
1514256875.5,286047001.9,N
1514256895.3,286047003.2,N
1514256915.2,286046999.7,N
1514256935.9,286046999.1,N
1514256955.7,286046996.5,N
1514256975.6,286046995.2,N
1514256995.4,286046999.3,N
1514257015.2,286046996.5,N
1514257035.0,286046998.3,N
1514257035.9,286046998.3,N
1514257055.8,286046999.1,N
1514257075.6,286047001.0,N
1514257095.4,286047001.5,N
1514257115.3,286047002.3,N
1514257135.1,286047002.8,N
1514257155.8,286047002.2,N
1514257175.7,286047002.8,N
1514257195.5,286047003.7,N
